Location: Unspecified
(0.0000°N, 0.0000°E)
Time: 10:45:43
(UTC+00:00)

A-11 Canister half - Pass Details

Date: 06 August 2021
Orbit: 1515 x 1685 km, 47.2° (Epoch: 27 September)

Event Time Altitude Azimuth Distance (km) Brightness Sun altitude
Rises 23:22:43 0° 331° (NNW) 4,925 11.9 -70.4°
Enters shadow 23:24:26 - 334° (NNW) 4,409 11.6 -70.7°
Reaches altitude 10° 23:26:02 10° 336° (NNW) 3,938 - -70.9°
Maximum altitude 23:35:46 51° 50° (NE) 2,011 - -72.0°
Drops below altitude 10° 23:45:19 10° 123° (ESE) 3,875 - -72.8°
Sets 23:48:32 0° 128° (SE) 4,842 - -73.0°
